Regional Weather Roundup
Issued by NWS

Home | Current Version | Previous Version | Graphics & Text | Print | Product List | Glossary On
Versions: 1 2 3 4 5 6 7 8 9 10 11 12 13 14 15 16 17 18 19 20 21 22 23 24 25 26 27 28 29 30 31 32 33 34 35 36 37 38 39 40 41 42 43 44 45 46 47 48 49 50
000
ASUS43 KDTX 070401
RWRMI
MICHIGAN HOURLY REGIONAL WEATHER ROUNDUP
NATIONAL WEATHER SERVICE DETROIT/PONTIAC MI
1200 AM EDT TUE JUL 07 2015

NOTE: "FAIR" INDICATES FEW OR NO CLOUDS BELOW 12,000 FEET WITH NO
SIGNIFICANT WEATHER AND/OR OBSTRUCTION TO VISIBILITY.

MIZ047>049-052>055-059>063-066>070-074>076-081>083-070500-
SOUTHEAST LOWER MICHIGAN

CITY           SKY/WX    TMP DP  RH WIND       PRES   REMARKS
ADRIAN         CLOUDY    74  66  76 S7        29.93F
ALMA           CLOUDY    76  66  71 S8        29.86F
ANN ARBOR      CLOUDY    73  65  75 S6        29.93S
BAD AXE        PTCLDY    72  59  62 S10       29.89F
CARO           CLOUDY    74  63  68 S7        29.87F
DETROIT CITY   PTCLDY    74  64  71 S9        29.93S
DETROIT        CLOUDY    74  64  71 SE7       29.93F
FLINT          CLOUDY    77  63  61 S8        29.89F
GROSSE ILE     PTCLDY    73  70  88 S9        29.92F
HILLSDALE      CLOUDY    76  66  71 S8        29.94S
HOWELL         CLOUDY    74  64  71 S6        29.91F

CITY           SKY/WX    TMP DP  RH WIND       PRES   REMARKS
JACKSON        CLOUDY    76  65  68 S10       29.91F
LAMBERTVILLE   MOCLDY    76  64  66 S8        29.94F
LANSING        CLOUDY    76  65  68 S12       29.89F
LAPEER         FAIR      73  60  65 S6        29.91S
MASON          CLOUDY    73  64  74 CALM      29.90F
MONROE         MOCLDY    74  64  71 S7        29.92F
MT. CLEMENS    PTCLDY    71  67  87 S12       29.91F
PONTIAC        CLOUDY    74  64  71 S8        29.91F
PORT HOPE        N/A     73  58  59 S7        29.86F
PORT HURON     CLEAR     68  63  83 S8        29.93F
TRI CITIES     CLOUDY    78  65  63 S12       29.87S
MIDLAND        FAIR      77  65  66 S7        29.85S
TROY           MOCLDY    76  63  64 S7        29.94S
SAGINAW HB     CLOUDY    77  63  61 S9        29.86F
$$
MIZ043>046-050>051-056>058-064>065-071>073-077>080-070500-
SOUTHWEST LOWER MICHIGAN

CITY           SKY/WX    TMP DP  RH WIND       PRES   REMARKS
BATTLE CREEK   CLOUDY    78  66  66 S12       29.89F
BENTON HARBOR  CLOUDY    78  69  73 S12G21    29.85F
BIG RAPIDS     CLOUDY    71  68  90 SW7       29.85F
COLDWATER      CLOUDY    76  64  65 S6        29.92F
FREMONT        RAIN      70  69  98 SW15G21   29.85S
HOLLAND        CLOUDY    79  68  69 S9        29.84F
GRAND RAPIDS   CLOUDY    78  67  68 S14       29.85F
IONIA          DRIZZLE   77  66  69 S7        29.86F
KALAMAZOO      CLOUDY    77  66  68 S12       29.88F
LUDINGTON      MOCLDY    73  69  85 S14G20    29.83S
MARSHALL       CLOUDY    77  65  68 S9G16     29.90F
MOUNT PLEASANT CLOUDY    77  65  68 S6        29.84F
MUSKEGON       TSTM      71  69  93 S10       29.86R VSB 1/2
SOUTH HAVEN    CLOUDY    79  68  69 S10G22    29.85F
$$
MIZ016>042-070500-
NORTHERN LOWER MICHIGAN

CITY           SKY/WX    TMP DP  RH WIND       PRES   REMARKS
ALPENA         CLOUDY    77  64  64 S10       29.80F
BEAVER ISLAND  LGT RAIN  58  57  96 N7        29.79F
BELLAIRE       LGT RAIN  78  65  65 SW13G18   29.78S
CADILLAC       LGT RAIN  71  68  92 W6G16     29.84F
CHARLEVOIX     HVY RAIN  63  61  95 W7        29.82S
FRANKFORT      CLOUDY    71  62  73 SW7G17    29.80S
GAYLORD        CLOUDY    75  67  76 SW13      29.81F
GRAYLING       LGT RAIN  75  66  72 S9G20     29.82F
HARBOR SPRINGS LGT RAIN  65  63  94 CALM      29.79S
HOUGHTON LAKE  CLOUDY    75  65  70 S10       29.83F
MANISTEE       MOCLDY   N/A N/A N/A SW5       29.81F
OSCODA         CLOUDY    76  64  65 S14       29.83F
PELLSTON       LGT RAIN  65  63  93 W5        29.79F FOG
ROGERS CITY    CLOUDY    77  66  68 S9        29.78F
TRAVERSE CITY  CLOUDY    73  68  84 VRB7      29.77F
$$
MIZ007>008-015-070500-
EASTERN UPPER MICHIGAN

CITY           SKY/WX    TMP DP  RH WIND       PRES   REMARKS
KINROSS        CLOUDY    66  64  94 W8        29.77F
MACKINAC ISLAN LGT RAIN  65  64  99 SW6       29.77F
NEWBERRY       LGT RAIN  56  56  99 NW8       29.82S
S. S. MARIE    LGT RAIN  61  60  97 W9        29.76S FOG
$$
MIZ004>006-011>014-085-070500-
CENTRAL UPPER MICHIGAN

CITY           SKY/WX    TMP DP  RH WIND       PRES   REMARKS
MANISTIQUE     LGT RAIN  56  55  95 N15G21    29.81S
ESCANABA       CLOUDY    57  55  94 N7        29.86R
MENOMINEE      CLOUDY    57  54  88 N7        29.88R
SAWYER-GWINN   CLOUDY    55  52  90 N10       29.90R
$$
MIZ001>003-009>011-084-070500-
WESTERN UPPER MICHIGAN

CITY           SKY/WX    TMP DP  RH WIND       PRES   REMARKS
IRON MOUNTAIN  CLOUDY    59  56  89 NW7       29.90R FOG
HOUGHTON       CLOUDY    53  51  93 NW9       29.94R
COPPER HARBOR    N/A     50  46  86 N10       29.93R
IRONWOOD       CLOUDY    55  54  94 N14G20    29.96S
$$

ABBREVIATIONS USED IN REMARKS
   TC - TEMPERATURE IN CELSIUS
  WCI - WIND CHILL INDEX
   HX - HEAT INDEX
  VSB - VISIBILITY



USA.gov is the U.S. government's official web portal to all federal, state and local government web resources and services.